Location: Borojevi?i
(45.0486°N, 16.2297°E)
Time: 16:01:25
(UTC+00:00)

Cosmos 1782 - Pass Details

Date: 08 August 2020
Orbit: 539 x 550 km, 82.5° (Epoch: 18 September)

Event Time Altitude Azimuth Distance (km) Brightness Sun altitude
Rises 18:51:12 0° 348° (NNW) 2,724 7.1 -7.0°
Reaches altitude 10° 18:53:22 10° 346° (NNW) 1,828 6.2 -7.3°
Maximum altitude 18:57:22 68° 264° (W) 595 3.2 -7.9°
Drops below altitude 10° 19:01:20 10° 182° (S) 1,818 5.2 -8.5°
Sets 19:03:30 0° 179° (S) 2,707 6.0 -8.9°
